Location: Newark
(7.0858°N, 171.3717°E)
Time: 13:29:47
(UTC+00:00)

Vanguard 1 Rocket - Pass Details

Date: 02 December 2020
Orbit: 655 x 4222 km, 34.3° (Epoch: 23 January)

Event Time Altitude Azimuth Distance (km) Brightness Sun altitude
Rises 07:54:57 0° 209° (SSW) 5,155 12.0 -23.7°
Reaches altitude 10° 07:58:10 10° 200° (SSW) 4,567 11.5 -24.4°
Maximum altitude 08:10:58 39° 135° (SE) 4,081 10.4 -27.4°
Enters shadow 08:18:50 31° 99° (E) 5,080 10.6 -29.2°
